Location: Béaulencourt
(50.0796°N, 2.8795°E)
Time: 04:39:28
(UTC+00:00)

Dummy Sat-02 - Visible Passes

Search period start: 21 April 2026 00:00
Search period end: 01 May 2026 00:00
Orbit: 472 x 484 km, 86.3° (Epoch: 20 April)

Date Brightness Start Highest point End Pass type
(mag) Time Alt. Az. Time Alt. Az. Time Alt. Az.
21 Apr 4.5 20:26:14 10° S 20:29:49 84° W 20:33:25 10° N visible
22 Apr 4.7 19:59:42 10° SSE 20:03:12 53° E 20:06:43 10° NNE visible
22 Apr 7.5 21:36:17 10° W 21:38:04 13° WNW 21:39:51 10° NW visible
23 Apr 5.4 19:33:28 10° SSE 19:36:39 30° E 19:39:50 10° NNE visible
23 Apr 7.0 21:08:25 10° SW 21:11:13 21° WNW 21:14:01 10° NNW visible
24 Apr 6.2 20:41:08 10° SSW 20:44:26 34° W 20:47:45 10° NNW visible
25 Apr 5.1 20:14:10 10° SSW 20:17:43 61° W 20:21:17 10° N visible
26 Apr 4.5 19:47:29 10° S 19:51:03 75° E 19:54:38 10° N visible
27 Apr 7.5 20:56:52 10° WSW 20:59:11 16° WNW 21:01:30 10° NNW visible
28 Apr 6.8 20:29:18 10° SW 20:32:21 26° WNW 20:35:25 10° NNW visible
29 Apr 5.8 20:02:08 10° SSW 20:05:35 44° W 20:09:02 10° N visible
